Weather in Artyomovsky

Russia / Sverdlovsk Oblast     57°20′18″N   61°53′40″E
temp.,
°C
wind,
m/s
gust,
m/s
humid.,
%
clouds,
%
prec.,
mm/h
press.,
hPa
HPBL,
m
27 july, tue
tue2723:00+12wsw377959 0.0 1015140
02:00+10w388678 0.0 1014149
05:00+13wsw3107596 0.0 1013289
08:00+16wsw410645 0.0 1011431
11:00+21w61051100 0.1 10091827
14:00+17w597545 1.1 10091150
17:00+19wnw69550 1.9 10081570
20:00+17nw410504 0.0 1008621
28 july, wed
wed2823:00+10wnw387244 0.0 1010171
02:00+8wnw388314 0.0 1010159
05:00+6wnw38895 0.0 1010168
08:00+12wnw4759100 0.0 1010832
11:00+14wnw475194 0.0 10101684
14:00+12wnw487389 0.8 10091321
17:00+15wnw5843100 1.1 10082299
20:00+12wnw376036 0.0 1010538
29 july, thu
thu2923:00+8w2576100 0.0 101097
02:00+9w377297 0.0 1010307
05:00+5w388830 0.0 1011189
08:00+11w486128 0.0 1010563
11:00+13wnw3554100 0.0 1010914
14:00+15nw2555100 0.0 1009708
17:00+16se116369 0.0 100883
20:00+16wsw2561100 0.0 1007157
30 july, fri
fri3023:00+14sw1466100 0.0 1007123
02:00+12ssw237328 0.0 100653
05:00+14sw3106365 0.0 1005227
08:00+17sw375936 0.0 1005259
11:00+23ssw3444100 0.0 10041037
14:00+24s354497 0.0 10021771
17:00+22s5557100 0.0 1002977
20:00+19ssw267516 0.0 1002184
31 july, sat
sat3123:00+15wsw3109656 0.1 1002236
02:00+14wsw399811 0.0 1003241
05:00+14w3109865 0.0 1004253
08:00+19wnw47795 0.0 1005485
11:00+23wnw465961 0.0 10061434
14:00+26nw374651 0.0 10062144
17:00+26nnw3646100 0.0 10071556
20:00+21n117145 0.0 100811